Date String (YYYY-MM-DD hh:mm:ss) UTC,Instrument flags,Ambient pressure (hPa),Sample flow (lpm),Bypass flow (lpm),Sample temperature (°C),Ambient temperature (°C),ASC tube jacket temperature (°C),LED temperature (°C),Box temperature (°C),Sample RH (%),Span deviation,Mass concentration (μg/m³),Mass concentration (μg/m³),Mass concentration (μg/m³)
DateTimeUTC,F1_M11,P_M11,Q1_M11,Q2_M11,T1_M11,T2_M11,T3_M11,T4_M11,T5_M11,U1_M11,ZSPAN_M11,X0_M11,X2_M11,X1_M11
2022-08-30 09:00:00,,0832.9,5.00,0.00,30.1,28.9,00.0,38.8,31.9,22.1,0000.0,0018.13,0007.32,0005.92
2022-08-30 09:01:00,,0832.8,5.00,0.00,30.1,29.0,00.0,38.8,31.9,22.0,0000.0,0018.60,0007.36,0005.94
2022-08-30 09:02:00,,0832.9,5.00,0.00,30.1,29.0,00.0,38.8,32.0,22.0,0000.0,0018.48,0007.35,0005.94
2022-08-30 09:03:00,,0832.8,4.99,0.00,30.1,29.0,00.0,38.8,32.0,22.2,0000.0,0018.89,0007.36,0005.93
2022-08-30 09:04:00,,0832.8,5.01,0.00,30.1,29.0,00.0,38.9,32.0,22.1,0000.0,0017.85,0007.32,0005.91
2022-08-30 09:05:00,,0832.7,5.01,0.00,30.1,29.0,00.0,38.9,32.0,22.1,0000.0,0016.58,0007.28,0005.92
2022-08-30 09:06:00,,0832.7,4.99,0.00,30.2,29.1,00.0,38.9,32.0,22.0,0000.0,0016.35,0007.27,0005.93
2022-08-30 09:07:00,,0832.8,5.00,0.00,30.2,29.1,00.0,38.9,32.0,21.9,0000.3,0016.70,0007.25,0005.92
2022-08-30 09:08:00,,0832.7,5.00,0.00,30.2,29.1,00.0,38.9,32.0,21.8,0000.0,0016.87,0007.27,0005.92
2022-08-30 09:09:00,,0832.7,5.00,0.00,30.2,29.1,00.0,38.9,32.0,21.8,0000.0,0016.40,0007.31,0005.94
2022-08-30 09:10:00,,0832.8,4.99,0.00,30.2,29.1,00.0,39.0,32.1,21.7,0000.0,0015.54,0007.27,0005.95
2022-08-30 09:11:00,,0832.7,5.00,0.00,30.2,29.2,00.0,39.0,32.1,21.7,0000.0,0014.51,0007.20,0005.94
2022-08-30 09:12:00,,0832.8,5.00,0.00,30.3,29.2,00.0,39.0,32.1,21.7,0000.0,0013.78,0007.15,0005.94
2022-08-30 09:13:00,,0832.8,5.01,0.00,30.3,29.2,00.0,39.0,32.1,21.8,0000.0,0014.08,0007.15,0005.95
2022-08-30 09:14:00,,0832.8,5.00,0.00,30.3,29.2,00.0,39.0,32.1,21.7,0000.0,0013.84,0007.11,0005.96
2022-08-30 09:15:00,,0832.8,5.01,0.00,30.3,29.3,00.0,39.0,32.1,21.6,0000.0,0014.26,0007.12,0005.97
2022-08-30 09:16:00,,0832.8,5.00,0.00,30.3,29.3,00.0,39.1,32.2,21.7,0000.0,0014.79,0007.12,0005.97
2022-08-30 09:17:00,,0832.8,5.00,0.00,30.4,29.3,00.0,39.1,32.2,21.6,0000.0,0016.08,0007.13,0005.96
2022-08-30 09:18:00,,0832.8,5.00,0.00,30.4,29.3,00.0,39.1,32.2,21.5,0000.0,0016.09,0007.17,0005.96
2022-08-30 09:19:00,,0832.8,4.99,0.00,30.4,28.4,00.0,39.1,32.1,21.5,0000.0,0016.41,0007.17,0005.98
2022-08-30 09:20:00,,0832.8,5.01,0.00,30.3,27.1,00.0,39.0,32.0,21.6,0000.0,0016.85,0007.13,0005.97
2022-08-30 09:21:00,,0832.8,4.99,0.00,30.3,27.0,00.0,39.0,31.9,21.8,0000.0,0017.07,0007.15,0005.95
2022-08-30 09:22:00,,0832.9,5.01,0.00,30.2,27.2,00.0,38.9,31.8,22.7,0000.0,0018.03,0007.22,0005.94
2022-08-30 09:23:00,,0832.9,5.00,0.00,30.1,27.5,00.0,38.9,31.7,23.1,0000.0,0018.31,0007.26,0005.93
2022-08-30 09:24:00,,0832.8,5.00,0.00,30.1,27.8,00.0,38.9,31.7,22.7,0000.0,0018.49,0007.22,0005.91
2022-08-30 09:25:00,,0832.8,5.00,0.00,30.0,28.0,00.0,38.9,31.7,22.7,0000.0,0018.33,0007.24,0005.90
2022-08-30 09:26:00,,0832.8,5.00,0.00,30.0,28.2,00.0,38.8,31.7,22.7,0000.0,0018.40,0007.23,0005.88
2022-08-30 09:27:00,,0832.8,5.00,0.00,30.0,28.4,00.0,38.8,31.7,22.6,0000.0,0018.97,0007.26,0005.87
2022-08-30 09:28:00,,0832.7,5.00,0.00,30.0,28.5,00.0,38.8,31.8,22.6,0000.0,0017.80,0007.25,0005.86
2022-08-30 09:29:00,,0832.7,5.01,0.00,30.0,28.6,00.0,38.8,31.8,22.4,0000.0,0018.01,0007.22,0005.84
2022-08-30 09:30:00,,0832.8,5.01,0.00,30.0,28.7,00.0,38.8,31.8,22.4,0000.0,0017.59,0007.22,0005.81
2022-08-30 09:31:00,,0832.8,5.01,0.00,30.0,28.8,00.0,38.8,31.9,22.4,0000.0,0017.40,0007.22,0005.79
2022-08-30 09:32:00,,0832.8,5.00,0.00,30.0,28.8,00.0,38.8,31.9,22.4,0000.0,0017.33,0007.22,0005.79
2022-08-30 09:33:00,,0832.8,4.99,0.00,30.1,28.9,00.0,38.8,31.9,22.4,0000.0,0016.44,0007.17,0005.77
2022-08-30 09:34:00,,0832.8,4.99,0.00,30.1,28.9,00.0,38.8,31.9,22.4,0000.0,0015.94,0007.11,0005.75
2022-08-30 09:35:00,,0832.8,5.00,0.00,30.1,28.9,00.0,38.9,31.9,22.4,0000.0,0015.57,0007.12,0005.74
2022-08-30 09:36:00,,0832.8,5.01,0.00,30.1,29.0,00.0,38.9,32.0,22.5,0000.0,0016.19,0007.12,0005.74
2022-08-30 09:37:00,,0832.8,5.00,0.00,30.1,29.0,00.0,38.9,32.0,22.4,0000.0,0016.21,0007.07,0005.74
2022-08-30 09:38:00,,0832.8,4.99,0.00,30.1,29.0,00.0,38.9,32.0,22.4,0000.0,0015.11,0007.01,0005.74
2022-08-30 09:39:00,,0832.8,5.01,0.00,30.2,29.1,00.0,38.9,32.0,22.4,0000.0,0014.57,0006.95,0005.74
2022-08-30 09:40:00,,0832.8,5.00,0.00,30.2,29.1,00.0,38.9,32.0,22.4,0000.0,0014.45,0006.93,0005.74
2022-08-30 09:41:00,,0832.8,4.99,0.00,30.2,29.1,00.0,38.9,32.0,22.4,0000.0,0014.59,0006.93,0005.75
2022-08-30 09:42:00,,0832.8,5.00,0.00,30.2,29.1,00.0,39.0,32.1,22.4,0000.0,0014.36,0006.88,0005.75
2022-08-30 09:43:00,,0832.7,4.99,0.00,30.2,29.2,00.0,39.0,32.1,22.4,0000.0,0014.86,0006.83,0005.75
2022-08-30 09:44:00,,0832.7,5.00,0.00,30.3,29.2,00.0,39.0,32.1,22.5,0000.0,0015.13,0006.85,0005.75
2022-08-30 09:45:00,,0832.7,5.01,0.00,30.3,29.2,00.0,39.0,32.1,22.4,0000.0,0016.13,0006.87,0005.77
2022-08-30 09:46:00,,0832.7,4.99,0.00,30.3,29.2,00.0,39.0,32.1,22.4,0000.0,0017.23,0006.93,0005.80
2022-08-30 09:47:00,,0832.7,5.01,0.00,30.3,29.3,00.0,39.0,32.1,22.4,0000.0,0017.09,0006.95,0005.81
2022-08-30 09:48:00,,0832.8,4.99,0.00,30.3,29.3,00.0,39.0,32.2,22.4,0000.0,0018.06,0006.97,0005.82
2022-08-30 09:49:00,,0832.7,5.01,0.00,30.3,29.3,00.0,39.1,32.2,22.4,0000.0,0018.51,0007.02,0005.81
2022-08-30 09:50:00,,0832.8,4.98,0.00,30.4,29.3,00.0,39.1,32.2,22.3,0000.0,0018.95,0007.06,0005.82
2022-08-30 09:51:00,,0832.8,5.00,0.00,30.4,29.1,00.0,39.1,32.2,22.3,0000.0,0019.25,0007.08,0005.83
2022-08-30 09:52:00,,0832.8,5.01,0.00,30.4,27.7,00.0,39.1,32.1,22.3,0000.0,0018.84,0007.07,0005.83
2022-08-30 09:53:00,,0832.7,4.99,0.00,30.3,27.0,00.0,39.0,32.0,22.3,0000.0,0020.13,0007.11,0005.84
2022-08-30 09:54:00,,0832.7,5.01,0.00,30.2,27.1,00.0,39.0,31.9,22.4,0000.0,0020.00,0007.16,0005.87
2022-08-30 09:55:00,,0832.7,5.00,0.00,30.1,27.3,00.0,38.9,31.7,22.4,0000.0,0019.98,0007.16,0005.88
2022-08-30 09:56:00,,0832.8,5.00,0.00,30.1,27.6,00.0,38.9,31.7,22.7,0000.0,0019.24,0007.15,0005.87
2022-08-30 09:57:00,,0832.7,5.01,0.00,30.0,27.9,00.0,38.9,31.7,23.1,0000.1,0018.43,0007.10,0005.87
2022-08-30 09:58:00,,0832.8,4.99,0.00,30.0,28.1,00.0,38.9,31.7,22.8,0001.1,0018.12,0007.07,0005.86
2022-08-30 09:59:00,,0832.7,5.00,0.00,30.0,28.3,00.0,38.8,31.7,23.2,0000.3,0016.73,0007.08,0005.85
